Year,Month,Day,Hour,Minute,Value (Times are PST for temperature in C)
2015,07,20,00,00,21.60
2015,07,20,00,01,21.60
2015,07,20,00,02,21.60
2015,07,20,00,03,21.60
2015,07,20,00,04,21.50
2015,07,20,00,05,21.40
2015,07,20,00,06,21.40
2015,07,20,00,07,21.40
2015,07,20,00,08,21.30
2015,07,20,00,09,21.30
2015,07,20,00,10,21.30
2015,07,20,00,11,21.30
2015,07,20,00,12,21.30
2015,07,20,00,13,21.30
2015,07,20,00,14,21.30
2015,07,20,00,15,21.30
2015,07,20,00,16,21.30
2015,07,20,00,17,21.20
2015,07,20,00,18,21.20
2015,07,20,00,19,21.20
2015,07,20,00,20,21.20
2015,07,20,00,21,21.20
2015,07,20,00,22,21.20
2015,07,20,00,23,21.10
2015,07,20,00,24,21.10
2015,07,20,00,25,21.10
2015,07,20,00,26,21.10
2015,07,20,00,27,21.00
2015,07,20,00,28,21.00
2015,07,20,00,29,21.00
2015,07,20,00,30,21.00
2015,07,20,00,31,21.00
2015,07,20,00,32,21.00
2015,07,20,00,33,21.00
2015,07,20,00,34,21.00
2015,07,20,00,35,21.00
2015,07,20,00,36,20.90
2015,07,20,00,37,20.90
2015,07,20,00,38,20.90
2015,07,20,00,39,20.90
2015,07,20,00,40,20.90
2015,07,20,00,41,20.80
2015,07,20,00,42,20.80
2015,07,20,00,43,20.70
2015,07,20,00,44,20.70
2015,07,20,00,45,20.70
2015,07,20,00,46,20.60
2015,07,20,00,47,20.60
2015,07,20,00,48,20.50
2015,07,20,00,49,20.50
2015,07,20,00,50,20.50
2015,07,20,00,51,20.50
2015,07,20,00,52,20.40
2015,07,20,00,53,20.40
2015,07,20,00,54,20.40
2015,07,20,00,55,20.40
2015,07,20,00,56,20.40
2015,07,20,00,57,20.40
2015,07,20,00,58,20.40
2015,07,20,00,59,20.30
2015,07,20,01,00,20.30
2015,07,20,01,01,20.30
2015,07,20,01,02,20.30
2015,07,20,01,03,20.30
2015,07,20,01,04,20.30
2015,07,20,01,05,20.30
2015,07,20,01,06,20.30
2015,07,20,01,07,20.30
2015,07,20,01,08,20.30
2015,07,20,01,09,20.30
2015,07,20,01,10,20.30
2015,07,20,01,11,20.30
2015,07,20,01,12,20.30
2015,07,20,01,13,20.30
2015,07,20,01,14,20.30
2015,07,20,01,15,20.20
2015,07,20,01,16,20.20
2015,07,20,01,17,20.20
2015,07,20,01,18,20.20
2015,07,20,01,19,20.20
2015,07,20,01,20,20.20
2015,07,20,01,21,20.20
2015,07,20,01,22,20.20
2015,07,20,01,23,20.20
2015,07,20,01,24,20.20
2015,07,20,01,25,20.20
2015,07,20,01,26,20.20
2015,07,20,01,27,20.20
2015,07,20,01,28,20.20
2015,07,20,01,29,20.30
2015,07,20,01,30,20.30
2015,07,20,01,31,20.30
2015,07,20,01,32,20.30
2015,07,20,01,33,20.30
2015,07,20,01,34,20.20
2015,07,20,01,35,20.20
2015,07,20,01,36,20.20
2015,07,20,01,37,20.20
2015,07,20,01,38,20.20
2015,07,20,01,39,20.20
2015,07,20,01,40,20.10
2015,07,20,01,41,20.10
2015,07,20,01,42,20.10
2015,07,20,01,43,20.00
2015,07,20,01,44,19.90
2015,07,20,01,45,19.90
2015,07,20,01,46,19.90
2015,07,20,01,47,19.90
2015,07,20,01,48,19.90
2015,07,20,01,49,19.90
2015,07,20,01,50,19.90
2015,07,20,01,51,19.90
2015,07,20,01,52,19.90
2015,07,20,01,53,19.80
2015,07,20,01,54,19.80
2015,07,20,01,55,19.70
2015,07,20,01,56,19.70
2015,07,20,01,57,19.60
2015,07,20,01,58,19.60
2015,07,20,01,59,19.50
2015,07,20,02,00,19.50
2015,07,20,02,01,19.40
2015,07,20,02,02,19.30
2015,07,20,02,03,19.30
2015,07,20,02,04,19.20
2015,07,20,02,05,19.10
2015,07,20,02,06,19.10
2015,07,20,02,07,19.10
2015,07,20,02,08,19.10
2015,07,20,02,09,19.10
2015,07,20,02,10,19.10
2015,07,20,02,11,19.10
2015,07,20,02,12,19.10
2015,07,20,02,13,19.10
2015,07,20,02,14,19.10
2015,07,20,02,15,19.10
2015,07,20,02,16,19.10
2015,07,20,02,17,19.10
2015,07,20,02,18,19.10
2015,07,20,02,19,19.10
2015,07,20,02,20,19.10
2015,07,20,02,21,19.10
2015,07,20,02,22,19.10
2015,07,20,02,23,19.00
2015,07,20,02,24,18.90
2015,07,20,02,25,18.90
2015,07,20,02,26,18.90
2015,07,20,02,27,18.80
2015,07,20,02,28,18.80
2015,07,20,02,29,18.70
2015,07,20,02,30,18.70
2015,07,20,02,31,18.70
2015,07,20,02,32,18.60
2015,07,20,02,33,18.60
2015,07,20,02,34,18.60
2015,07,20,02,35,18.60
2015,07,20,02,36,18.60
2015,07,20,02,37,18.60
2015,07,20,02,38,18.60
2015,07,20,02,39,18.60
2015,07,20,02,40,18.50
2015,07,20,02,41,18.50
2015,07,20,02,42,18.50
2015,07,20,02,43,18.50
2015,07,20,02,44,18.50
2015,07,20,02,45,18.50
2015,07,20,02,46,18.50
2015,07,20,02,47,18.40
2015,07,20,02,48,18.40
2015,07,20,02,49,18.40
2015,07,20,02,50,18.40
2015,07,20,02,51,18.40
2015,07,20,02,52,18.40
2015,07,20,02,53,18.40
2015,07,20,02,54,18.40
2015,07,20,02,55,18.30
2015,07,20,02,56,18.30
2015,07,20,02,57,18.30
2015,07,20,02,58,18.30
2015,07,20,02,59,18.30
2015,07,20,03,00,18.30
2015,07,20,03,01,18.30
2015,07,20,03,02,18.30
2015,07,20,03,03,18.30
2015,07,20,03,04,18.30
2015,07,20,03,05,18.30
2015,07,20,03,06,18.30
2015,07,20,03,07,18.30
2015,07,20,03,08,18.40
2015,07,20,03,09,18.40
2015,07,20,03,10,18.50
2015,07,20,03,11,18.50
2015,07,20,03,12,18.60
2015,07,20,03,13,18.60
2015,07,20,03,14,18.70
2015,07,20,03,15,18.70
2015,07,20,03,16,18.80
2015,07,20,03,17,18.80
2015,07,20,03,18,18.90
2015,07,20,03,19,18.90
2015,07,20,03,20,18.90
2015,07,20,03,21,18.90
2015,07,20,03,22,18.90
2015,07,20,03,23,18.90
2015,07,20,03,24,18.90
2015,07,20,03,25,18.90
2015,07,20,03,26,18.90
2015,07,20,03,27,18.90
2015,07,20,03,28,18.90
2015,07,20,03,29,19.00
2015,07,20,03,30,19.10
2015,07,20,03,31,19.10
2015,07,20,03,32,19.10
2015,07,20,03,33,19.10
2015,07,20,03,34,19.10
2015,07,20,03,35,19.10
2015,07,20,03,36,19.10
2015,07,20,03,37,19.10
2015,07,20,03,38,19.20
2015,07,20,03,39,19.20
2015,07,20,03,40,19.30
2015,07,20,03,41,19.30
2015,07,20,03,42,19.30
2015,07,20,03,43,19.40
2015,07,20,03,44,19.40
2015,07,20,03,45,19.40
2015,07,20,03,46,19.50
2015,07,20,03,47,19.50
2015,07,20,03,48,19.60
2015,07,20,03,49,19.60
2015,07,20,03,50,19.70
2015,07,20,03,51,19.70
2015,07,20,03,52,19.70
2015,07,20,03,53,19.70
2015,07,20,03,54,19.70
2015,07,20,03,55,19.80
2015,07,20,03,56,19.80
2015,07,20,03,57,19.80
2015,07,20,03,58,19.80
2015,07,20,03,59,19.80
2015,07,20,04,00,19.80
2015,07,20,04,01,19.80
2015,07,20,04,02,19.70
2015,07,20,04,03,19.70
2015,07,20,04,04,19.70
2015,07,20,04,05,19.70
2015,07,20,04,06,19.70
2015,07,20,04,07,19.70
2015,07,20,04,08,19.70
2015,07,20,04,09,19.70
2015,07,20,04,10,19.70
2015,07,20,04,11,19.60
2015,07,20,04,12,19.60
2015,07,20,04,13,19.60
2015,07,20,04,14,19.60
2015,07,20,04,15,19.60
2015,07,20,04,16,19.60
2015,07,20,04,17,19.60
2015,07,20,04,18,19.60
2015,07,20,04,19,19.50
2015,07,20,04,20,19.50
2015,07,20,04,21,19.50
2015,07,20,04,22,19.50
2015,07,20,04,23,19.50
2015,07,20,04,24,19.50
2015,07,20,04,25,19.50
2015,07,20,04,26,19.50
2015,07,20,04,27,19.40
2015,07,20,04,28,19.40
2015,07,20,04,29,19.40
2015,07,20,04,30,19.40
2015,07,20,04,31,19.40
2015,07,20,04,32,19.40
2015,07,20,04,33,19.40
2015,07,20,04,34,19.40
2015,07,20,04,35,19.40
2015,07,20,04,36,19.30
2015,07,20,04,37,19.30
2015,07,20,04,38,19.30
2015,07,20,04,39,19.30
2015,07,20,04,40,19.30
2015,07,20,04,41,19.30
2015,07,20,04,42,19.20
2015,07,20,04,43,19.20
2015,07,20,04,44,19.20
2015,07,20,04,45,19.20
2015,07,20,04,46,19.20
2015,07,20,04,47,19.20
2015,07,20,04,48,19.20
2015,07,20,04,49,19.20
2015,07,20,04,50,19.20
2015,07,20,04,51,19.20
2015,07,20,04,52,19.20
2015,07,20,04,53,19.20
2015,07,20,04,54,19.20
2015,07,20,04,55,19.30
2015,07,20,04,56,19.30
2015,07,20,04,57,19.30
2015,07,20,04,58,19.30
2015,07,20,04,59,19.30
2015,07,20,05,00,19.30
2015,07,20,05,01,19.20
2015,07,20,05,02,19.20
2015,07,20,05,03,19.20
2015,07,20,05,04,19.20
2015,07,20,05,05,19.20
2015,07,20,05,06,19.10
2015,07,20,05,07,19.10
2015,07,20,05,08,19.10
2015,07,20,05,09,19.00
2015,07,20,05,10,18.90
2015,07,20,05,11,18.90
2015,07,20,05,12,18.90
2015,07,20,05,13,18.90
2015,07,20,05,14,18.80
2015,07,20,05,15,18.80
2015,07,20,05,16,18.70
2015,07,20,05,17,18.70
2015,07,20,05,18,18.70
2015,07,20,05,19,18.60
2015,07,20,05,20,18.60
2015,07,20,05,21,18.50
2015,07,20,05,22,18.50
2015,07,20,05,23,18.50
2015,07,20,05,24,18.40
2015,07,20,05,25,18.40
2015,07,20,05,26,18.30
2015,07,20,05,27,18.30
2015,07,20,05,28,18.30
2015,07,20,05,29,18.20
2015,07,20,05,30,18.20
2015,07,20,05,31,18.20
2015,07,20,05,32,18.20
2015,07,20,05,33,18.20
2015,07,20,05,34,18.30
2015,07,20,05,35,18.40
2015,07,20,05,36,18.50
2015,07,20,05,37,18.60
2015,07,20,05,38,18.60
2015,07,20,05,39,18.70
2015,07,20,05,40,18.70
2015,07,20,05,41,18.80
2015,07,20,05,42,18.90
2015,07,20,05,43,18.90
2015,07,20,05,44,18.90
2015,07,20,05,45,19.00
2015,07,20,05,46,19.10
2015,07,20,05,47,19.00
2015,07,20,05,48,18.90
2015,07,20,05,49,18.90
2015,07,20,05,50,18.90
2015,07,20,05,51,18.90
2015,07,20,05,52,18.80
2015,07,20,05,53,18.80
2015,07,20,05,54,18.70
2015,07,20,05,55,18.70
2015,07,20,05,56,18.60
2015,07,20,05,57,18.50
2015,07,20,05,58,18.50
2015,07,20,05,59,18.40
2015,07,20,06,00,18.40
2015,07,20,06,01,18.30
2015,07,20,06,02,18.30
2015,07,20,06,03,18.20
2015,07,20,06,04,18.20
2015,07,20,06,05,18.20
2015,07,20,06,06,18.10
2015,07,20,06,07,18.00
2015,07,20,06,08,17.90
2015,07,20,06,09,17.80
2015,07,20,06,10,17.80
2015,07,20,06,11,17.70
2015,07,20,06,12,17.70
2015,07,20,06,13,17.60
2015,07,20,06,14,17.50
2015,07,20,06,15,17.40
2015,07,20,06,16,17.30
2015,07,20,06,17,17.20
2015,07,20,06,18,17.10
2015,07,20,06,19,17.00
2015,07,20,06,20,16.90
2015,07,20,06,21,16.90
2015,07,20,06,22,16.80
2015,07,20,06,23,16.80
2015,07,20,06,24,16.80
2015,07,20,06,25,16.70
2015,07,20,06,26,16.70
2015,07,20,06,27,16.70
2015,07,20,06,28,16.70
2015,07,20,06,29,16.60
2015,07,20,06,30,16.40
2015,07,20,06,31,16.40
2015,07,20,06,32,16.30
2015,07,20,06,33,16.20
2015,07,20,06,34,16.20
2015,07,20,06,35,16.20
2015,07,20,06,36,16.20
2015,07,20,06,37,16.30
2015,07,20,06,38,16.30
2015,07,20,06,39,16.40
2015,07,20,06,40,16.40
2015,07,20,06,41,16.40
2015,07,20,06,42,16.40
2015,07,20,06,43,16.40
2015,07,20,06,44,16.30
2015,07,20,06,45,16.30
2015,07,20,06,46,16.40
2015,07,20,06,47,16.40
2015,07,20,06,48,16.40
2015,07,20,06,49,16.40
2015,07,20,06,50,16.40
2015,07,20,06,51,16.40
2015,07,20,06,52,16.40
2015,07,20,06,53,16.60
2015,07,20,06,54,16.60
2015,07,20,06,55,16.70
2015,07,20,06,56,16.70
2015,07,20,06,57,16.80
2015,07,20,06,58,16.90
2015,07,20,06,59,17.00
2015,07,20,07,00,17.10
2015,07,20,07,01,17.20
2015,07,20,07,02,17.30
2015,07,20,07,03,17.30
2015,07,20,07,04,17.40
2015,07,20,07,05,17.40
2015,07,20,07,06,17.40
2015,07,20,07,07,17.30
2015,07,20,07,08,17.30
2015,07,20,07,09,17.30
2015,07,20,07,10,17.30
2015,07,20,07,11,17.30
2015,07,20,07,12,17.30
2015,07,20,07,13,17.30
2015,07,20,07,14,17.30
2015,07,20,07,15,17.20
2015,07,20,07,16,17.20
2015,07,20,07,17,17.20
2015,07,20,07,18,17.20
2015,07,20,07,19,17.20
2015,07,20,07,20,17.20
2015,07,20,07,21,17.20
2015,07,20,07,22,17.20
2015,07,20,07,23,17.20
2015,07,20,07,24,17.30
2015,07,20,07,25,17.30
2015,07,20,07,26,17.30
2015,07,20,07,27,17.30
2015,07,20,07,28,17.30
2015,07,20,07,29,17.20
2015,07,20,07,30,17.20
2015,07,20,07,31,17.20
2015,07,20,07,32,17.30
2015,07,20,07,33,17.30
2015,07,20,07,34,17.30
2015,07,20,07,35,17.30
2015,07,20,07,36,17.30
2015,07,20,07,37,17.30
2015,07,20,07,38,17.20
2015,07,20,07,39,17.10
2015,07,20,07,40,17.00
2015,07,20,07,41,17.00
2015,07,20,07,42,16.90
2015,07,20,07,43,16.90
2015,07,20,07,44,16.90
2015,07,20,07,45,16.80
2015,07,20,07,46,16.80
2015,07,20,07,47,16.80
2015,07,20,07,48,16.90
2015,07,20,07,49,16.90
2015,07,20,07,50,16.90
2015,07,20,07,51,16.90
2015,07,20,07,52,16.90
2015,07,20,07,53,16.90
2015,07,20,07,54,16.90
2015,07,20,07,55,16.90
2015,07,20,07,56,16.90
2015,07,20,07,57,16.90
2015,07,20,07,58,16.90
2015,07,20,07,59,16.80
2015,07,20,08,00,16.90
2015,07,20,08,01,16.90
2015,07,20,08,02,16.90
2015,07,20,08,03,17.00
2015,07,20,08,04,17.10
2015,07,20,08,05,17.10
2015,07,20,08,06,17.10
2015,07,20,08,07,17.20
2015,07,20,08,08,17.20
2015,07,20,08,09,17.30
2015,07,20,08,10,17.30
2015,07,20,08,11,17.30
2015,07,20,08,12,17.30
2015,07,20,08,13,17.40
2015,07,20,08,14,17.40
2015,07,20,08,15,17.50
2015,07,20,08,16,17.50
2015,07,20,08,17,17.60
2015,07,20,08,18,17.60
2015,07,20,08,19,17.70
2015,07,20,08,20,17.70
2015,07,20,08,21,17.70
2015,07,20,08,22,17.60
2015,07,20,08,23,17.50
2015,07,20,08,24,17.60
2015,07,20,08,25,17.70
2015,07,20,08,26,17.70
2015,07,20,08,27,17.80
2015,07,20,08,28,17.70
2015,07,20,08,29,17.70
2015,07,20,08,30,17.70
2015,07,20,08,31,17.70
2015,07,20,08,32,17.70
2015,07,20,08,33,17.70
2015,07,20,08,34,17.70
2015,07,20,08,35,17.70
2015,07,20,08,36,17.70
2015,07,20,08,37,17.70
2015,07,20,08,38,17.80
2015,07,20,08,39,17.80
2015,07,20,08,40,17.70
2015,07,20,08,41,17.80
2015,07,20,08,42,17.80
2015,07,20,08,43,17.80
2015,07,20,08,44,17.90
2015,07,20,08,45,17.90
2015,07,20,08,46,17.90
2015,07,20,08,47,17.90
2015,07,20,08,48,17.90
2015,07,20,08,49,17.90
2015,07,20,08,50,17.90
2015,07,20,08,51,17.90
2015,07,20,08,52,18.00
2015,07,20,08,53,18.10
2015,07,20,08,54,18.10
2015,07,20,08,55,18.10
2015,07,20,08,56,18.00
2015,07,20,08,57,17.90
2015,07,20,08,58,17.90
2015,07,20,08,59,17.90
2015,07,20,09,00,17.90
2015,07,20,09,01,17.90
2015,07,20,09,02,17.80
2015,07,20,09,03,17.80
2015,07,20,09,04,17.90
2015,07,20,09,05,17.80
2015,07,20,09,06,17.80
2015,07,20,09,07,17.80
2015,07,20,09,08,17.70
2015,07,20,09,09,17.60
2015,07,20,09,10,17.50
2015,07,20,09,11,17.40
2015,07,20,09,12,17.30
2015,07,20,09,13,17.30
2015,07,20,09,14,17.30
2015,07,20,09,15,17.30
2015,07,20,09,16,17.30
2015,07,20,09,17,17.30
2015,07,20,09,18,17.20
2015,07,20,09,19,17.00
2015,07,20,09,20,16.90
2015,07,20,09,21,16.90
2015,07,20,09,22,16.90
2015,07,20,09,23,16.90
2015,07,20,09,24,17.00
2015,07,20,09,25,17.10
2015,07,20,09,26,17.20
2015,07,20,09,27,17.10
2015,07,20,09,28,17.00
2015,07,20,09,29,16.90
2015,07,20,09,30,16.90
2015,07,20,09,31,17.00
2015,07,20,09,32,17.30
2015,07,20,09,33,17.30
2015,07,20,09,34,17.30
2015,07,20,09,35,17.40
2015,07,20,09,36,17.50
2015,07,20,09,37,17.40
2015,07,20,09,38,17.30
2015,07,20,09,39,17.30
2015,07,20,09,40,17.30
2015,07,20,09,41,17.30
2015,07,20,09,42,17.30
2015,07,20,09,43,17.40
2015,07,20,09,44,17.50
2015,07,20,09,45,17.60
2015,07,20,09,46,17.70
2015,07,20,09,47,17.90
2015,07,20,09,48,18.00
2015,07,20,09,49,18.20
2015,07,20,09,50,18.40
2015,07,20,09,51,18.60
2015,07,20,09,52,18.80
2015,07,20,09,53,18.90
2015,07,20,09,54,19.10
2015,07,20,09,55,19.20
2015,07,20,09,56,19.30
2015,07,20,09,57,19.50
2015,07,20,09,58,19.60
2015,07,20,09,59,19.60
2015,07,20,10,00,19.70
2015,07,20,10,01,19.80
2015,07,20,10,02,19.80
2015,07,20,10,03,19.70
2015,07,20,10,04,19.70
2015,07,20,10,05,19.70
2015,07,20,10,06,19.80
2015,07,20,10,07,19.90
2015,07,20,10,08,19.90
2015,07,20,10,09,19.90
2015,07,20,10,10,19.90
2015,07,20,10,11,19.90
2015,07,20,10,12,20.00
2015,07,20,10,13,20.10
2015,07,20,10,14,20.10
2015,07,20,10,15,20.10
2015,07,20,10,16,20.10
2015,07,20,10,17,20.20
2015,07,20,10,18,20.30
2015,07,20,10,19,20.30
2015,07,20,10,20,20.30
2015,07,20,10,21,20.30
2015,07,20,10,22,20.40
2015,07,20,10,23,20.50
2015,07,20,10,24,20.50
2015,07,20,10,25,20.50
2015,07,20,10,26,20.50
2015,07,20,10,27,20.60
2015,07,20,10,28,20.50
2015,07,20,10,29,20.50
2015,07,20,10,30,20.50
2015,07,20,10,31,20.50
2015,07,20,10,32,20.50
2015,07,20,10,33,20.60
2015,07,20,10,34,20.60
2015,07,20,10,35,20.70
2015,07,20,10,36,20.70
2015,07,20,10,37,20.60
2015,07,20,10,38,20.60
2015,07,20,10,39,20.60
2015,07,20,10,40,20.60
2015,07,20,10,41,20.70
2015,07,20,10,42,20.70
2015,07,20,10,43,20.80
2015,07,20,10,44,20.80
2015,07,20,10,45,20.90
2015,07,20,10,46,20.90
2015,07,20,10,47,20.80
2015,07,20,10,48,20.80
2015,07,20,10,49,20.70
2015,07,20,10,50,20.80
2015,07,20,10,51,20.80
2015,07,20,10,52,20.80
2015,07,20,10,53,20.70
2015,07,20,10,54,20.70
2015,07,20,10,55,20.70
2015,07,20,10,56,20.80
2015,07,20,10,57,20.90
2015,07,20,10,58,20.90
2015,07,20,10,59,21.00
2015,07,20,11,00,21.00
2015,07,20,11,01,21.20
2015,07,20,11,02,21.30
2015,07,20,11,03,21.30
2015,07,20,11,04,21.40
2015,07,20,11,05,21.40
2015,07,20,11,06,21.50
2015,07,20,11,07,21.60
2015,07,20,11,08,21.60
2015,07,20,11,09,21.80
2015,07,20,11,10,21.90
2015,07,20,11,11,22.00
2015,07,20,11,12,22.00
2015,07,20,11,13,22.00
2015,07,20,11,14,22.10
2015,07,20,11,15,22.20
2015,07,20,11,16,22.30
2015,07,20,11,17,22.30
2015,07,20,11,18,22.20
2015,07,20,11,19,22.20
2015,07,20,11,20,22.10
2015,07,20,11,21,22.10
2015,07,20,11,22,22.20
2015,07,20,11,23,22.30
2015,07,20,11,24,22.30
2015,07,20,11,25,22.30
2015,07,20,11,26,22.30
2015,07,20,11,27,22.30
2015,07,20,11,28,22.20
2015,07,20,11,29,22.30
2015,07,20,11,30,22.30
2015,07,20,11,31,22.40
2015,07,20,11,32,22.40
2015,07,20,11,33,22.40
2015,07,20,11,34,22.40
2015,07,20,11,35,22.40
2015,07,20,11,36,22.40
2015,07,20,11,37,22.50
2015,07,20,11,38,22.50
2015,07,20,11,39,22.60
2015,07,20,11,40,22.70
2015,07,20,11,41,22.70
2015,07,20,11,42,22.60
2015,07,20,11,43,22.60
2015,07,20,11,44,22.60
2015,07,20,11,45,22.70
2015,07,20,11,46,22.80
2015,07,20,11,47,23.00
2015,07,20,11,48,23.20
2015,07,20,11,49,23.30
2015,07,20,11,50,23.20
2015,07,20,11,51,23.20
2015,07,20,11,52,23.10
2015,07,20,11,53,23.10
2015,07,20,11,54,23.10
2015,07,20,11,55,23.20
2015,07,20,11,56,23.20
2015,07,20,11,57,23.30
2015,07,20,11,58,23.30
2015,07,20,11,59,23.20
2015,07,20,12,00,23.00
2015,07,20,12,01,22.90
2015,07,20,12,02,22.80
2015,07,20,12,03,22.80
2015,07,20,12,04,22.80
2015,07,20,12,05,22.80
2015,07,20,12,06,22.90
2015,07,20,12,07,22.90
2015,07,20,12,08,22.90
2015,07,20,12,09,23.00
2015,07,20,12,10,23.10
2015,07,20,12,11,23.20
2015,07,20,12,12,23.30
2015,07,20,12,13,23.40
2015,07,20,12,14,23.50
2015,07,20,12,15,23.60
2015,07,20,12,16,23.70
2015,07,20,12,17,23.80
2015,07,20,12,18,23.90
2015,07,20,12,19,23.90
2015,07,20,12,20,23.90
2015,07,20,12,21,23.90
2015,07,20,12,22,24.10
2015,07,20,12,23,24.10
2015,07,20,12,24,24.10
2015,07,20,12,25,24.00
2015,07,20,12,26,23.90
2015,07,20,12,27,23.90
2015,07,20,12,28,23.90
2015,07,20,12,29,23.80
2015,07,20,12,30,23.70
2015,07,20,12,31,23.70
2015,07,20,12,32,23.70
2015,07,20,12,33,23.80
2015,07,20,12,34,23.80
2015,07,20,12,35,23.80
2015,07,20,12,36,23.80
2015,07,20,12,37,23.80
2015,07,20,12,38,23.90
2015,07,20,12,39,23.90
2015,07,20,12,40,23.90
2015,07,20,12,41,23.90
2015,07,20,12,42,23.90
2015,07,20,12,43,23.90
2015,07,20,12,44,23.90
2015,07,20,12,45,23.90
2015,07,20,12,46,23.90
2015,07,20,12,47,23.90
2015,07,20,12,48,24.10
2015,07,20,12,49,24.10
2015,07,20,12,50,24.10
2015,07,20,12,51,24.10
2015,07,20,12,52,24.10
2015,07,20,12,53,24.10
2015,07,20,12,54,24.10
2015,07,20,12,55,24.10
2015,07,20,12,56,24.10
2015,07,20,12,57,24.10
2015,07,20,12,58,24.10
2015,07,20,12,59,24.10
2015,07,20,13,00,24.10
2015,07,20,13,01,24.00
2015,07,20,13,02,23.90
2015,07,20,13,03,23.80
2015,07,20,13,04,23.70
2015,07,20,13,05,23.70
2015,07,20,13,06,23.70
2015,07,20,13,07,23.60
2015,07,20,13,08,23.60
2015,07,20,13,09,23.60
2015,07,20,13,10,23.60
2015,07,20,13,11,23.60
2015,07,20,13,12,23.60
2015,07,20,13,13,23.60
2015,07,20,13,14,23.60
2015,07,20,13,15,23.60
2015,07,20,13,16,23.60
2015,07,20,13,17,23.60
2015,07,20,13,18,23.50
2015,07,20,13,19,23.40
2015,07,20,13,20,23.30
2015,07,20,13,21,23.40
2015,07,20,13,22,23.50
2015,07,20,13,23,23.60
2015,07,20,13,24,23.60
2015,07,20,13,25,23.70
2015,07,20,13,26,23.70
2015,07,20,13,27,23.70
2015,07,20,13,28,23.70
2015,07,20,13,29,23.70
2015,07,20,13,30,23.70
2015,07,20,13,31,23.60
2015,07,20,13,32,23.60
2015,07,20,13,33,23.60
2015,07,20,13,34,23.60
2015,07,20,13,35,23.60
2015,07,20,13,36,23.60
2015,07,20,13,37,23.60
2015,07,20,13,38,23.60
2015,07,20,13,39,23.60
2015,07,20,13,40,23.60
2015,07,20,13,41,23.60
2015,07,20,13,42,23.60
2015,07,20,13,43,23.60
2015,07,20,13,44,23.60
2015,07,20,13,45,23.50
2015,07,20,13,46,23.40
2015,07,20,13,47,23.40
2015,07,20,13,48,23.40
2015,07,20,13,49,23.40
2015,07,20,13,50,23.30
2015,07,20,13,51,23.30
2015,07,20,13,52,23.30
2015,07,20,13,53,23.30
2015,07,20,13,54,23.30
2015,07,20,13,55,23.30
2015,07,20,13,56,23.30
2015,07,20,13,57,23.30
2015,07,20,13,58,23.30
2015,07,20,13,59,23.30
2015,07,20,14,00,23.30
2015,07,20,14,01,23.30
2015,07,20,14,02,23.30
2015,07,20,14,03,23.30
2015,07,20,14,04,23.30
2015,07,20,14,05,23.30
2015,07,20,14,06,23.40
2015,07,20,14,07,23.60
2015,07,20,14,08,23.70
2015,07,20,14,09,23.70
2015,07,20,14,10,23.90
2015,07,20,14,11,23.90
2015,07,20,14,12,23.90
2015,07,20,14,13,23.90
2015,07,20,14,14,23.90
2015,07,20,14,15,23.90
2015,07,20,14,16,23.90
2015,07,20,14,17,24.00
2015,07,20,14,18,24.10
2015,07,20,14,19,24.10
2015,07,20,14,20,24.10
2015,07,20,14,21,24.10
2015,07,20,14,22,24.10
2015,07,20,14,23,24.10
2015,07,20,14,24,24.20
2015,07,20,14,25,24.20
2015,07,20,14,26,24.30
2015,07,20,14,27,24.30
2015,07,20,14,28,24.40
2015,07,20,14,29,24.40
2015,07,20,14,30,24.50
2015,07,20,14,31,24.50
2015,07,20,14,32,24.50
2015,07,20,14,33,24.50
2015,07,20,14,34,24.50
2015,07,20,14,35,24.50
2015,07,20,14,36,24.70
2015,07,20,14,37,24.80
2015,07,20,14,38,24.80
2015,07,20,14,39,24.90
2015,07,20,14,40,24.90
2015,07,20,14,41,25.00
2015,07,20,14,42,25.00
2015,07,20,14,43,25.00
2015,07,20,14,44,25.00
2015,07,20,14,45,25.00
2015,07,20,14,46,25.00
2015,07,20,14,47,25.00
2015,07,20,14,48,25.00
2015,07,20,14,49,25.10
2015,07,20,14,50,25.10
2015,07,20,14,51,25.10
2015,07,20,14,52,25.00
2015,07,20,14,53,25.00
2015,07,20,14,54,25.00
2015,07,20,14,55,25.00
2015,07,20,14,56,24.90
2015,07,20,14,57,24.90
2015,07,20,14,58,24.90
2015,07,20,14,59,24.80
2015,07,20,15,00,24.80
2015,07,20,15,01,24.80
2015,07,20,15,02,24.80
2015,07,20,15,03,24.80
2015,07,20,15,04,24.80
2015,07,20,15,05,24.80
2015,07,20,15,06,24.80
2015,07,20,15,07,24.80
2015,07,20,15,08,24.80
2015,07,20,15,09,24.80
2015,07,20,15,10,24.80
2015,07,20,15,11,24.80
2015,07,20,15,12,24.80
2015,07,20,15,13,24.80
2015,07,20,15,14,24.80
2015,07,20,15,15,24.90
2015,07,20,15,16,24.90
2015,07,20,15,17,24.90
2015,07,20,15,18,24.90
2015,07,20,15,19,24.90
2015,07,20,15,20,24.90
2015,07,20,15,21,24.90
2015,07,20,15,22,24.90
2015,07,20,15,23,24.90
2015,07,20,15,24,24.90
2015,07,20,15,25,24.90
2015,07,20,15,26,24.80
2015,07,20,15,27,24.80
2015,07,20,15,28,24.80
2015,07,20,15,29,24.80
2015,07,20,15,30,24.80
2015,07,20,15,31,24.70
2015,07,20,15,32,24.70
2015,07,20,15,33,24.70
2015,07,20,15,34,24.70
2015,07,20,15,35,24.60
2015,07,20,15,36,24.70
2015,07,20,15,37,24.70
2015,07,20,15,38,24.60
2015,07,20,15,39,24.50
2015,07,20,15,40,24.50
2015,07,20,15,41,24.50
2015,07,20,15,42,24.40
2015,07,20,15,43,24.40
2015,07,20,15,44,24.40
2015,07,20,15,45,24.40
2015,07,20,15,46,24.30
2015,07,20,15,47,24.30
2015,07,20,15,48,24.30
2015,07,20,15,49,24.30
2015,07,20,15,50,24.30
2015,07,20,15,51,24.30
2015,07,20,15,52,24.20
2015,07,20,15,53,24.10
2015,07,20,15,54,24.10
2015,07,20,15,55,24.10
2015,07,20,15,56,24.00
2015,07,20,15,57,23.90
2015,07,20,15,58,24.10
2015,07,20,15,59,24.10
2015,07,20,16,00,24.10
2015,07,20,16,01,24.10
2015,07,20,16,02,24.10
2015,07,20,16,03,24.10
2015,07,20,16,04,24.00
2015,07,20,16,05,23.90
2015,07,20,16,06,23.90
2015,07,20,16,07,23.80
2015,07,20,16,08,23.80
2015,07,20,16,09,23.70
2015,07,20,16,10,23.70
2015,07,20,16,11,23.70
2015,07,20,16,12,23.70
2015,07,20,16,13,23.70
2015,07,20,16,14,23.70
2015,07,20,16,15,23.70
2015,07,20,16,16,23.70
2015,07,20,16,17,23.70
2015,07,20,16,18,23.70
2015,07,20,16,19,23.70
2015,07,20,16,20,23.70
2015,07,20,16,21,23.70
2015,07,20,16,22,23.70
2015,07,20,16,23,23.60
2015,07,20,16,24,23.60
2015,07,20,16,25,23.60
2015,07,20,16,26,23.60
2015,07,20,16,27,23.60
2015,07,20,16,28,23.60
2015,07,20,16,29,23.60
2015,07,20,16,30,23.60
2015,07,20,16,31,23.60
2015,07,20,16,32,23.60
2015,07,20,20,47,19.30
2015,07,20,20,48,19.30
2015,07,20,20,49,19.20
2015,07,20,20,50,19.20
2015,07,20,20,51,19.20
2015,07,20,20,52,19.20
2015,07,20,20,53,19.10
2015,07,20,20,54,19.10
2015,07,20,20,55,19.10
2015,07,20,20,56,19.10
2015,07,20,20,57,19.10
2015,07,20,20,58,19.00
2015,07,20,20,59,18.90
2015,07,20,21,00,18.90
2015,07,20,21,01,18.90
2015,07,20,21,02,18.90
2015,07,20,21,03,18.80
2015,07,20,21,04,18.80
2015,07,20,21,05,18.80
2015,07,20,21,06,18.80
2015,07,20,21,07,18.80
2015,07,20,21,08,18.70
2015,07,20,21,09,18.70
2015,07,20,21,10,18.70
2015,07,20,21,11,18.70
2015,07,20,21,12,18.70
2015,07,20,21,13,18.70
2015,07,20,21,14,18.70
2015,07,20,21,15,18.70
2015,07,20,21,16,18.70
2015,07,20,21,17,18.70
2015,07,20,21,18,18.70
2015,07,20,21,19,18.70
2015,07,20,21,20,18.70
2015,07,20,21,21,18.70
2015,07,20,21,22,18.70
2015,07,20,21,23,18.70
2015,07,20,21,24,18.70
2015,07,20,21,25,18.70
2015,07,20,21,26,18.70
2015,07,20,21,27,18.70
2015,07,20,21,28,18.80
2015,07,20,21,29,18.80
2015,07,20,21,30,18.80
2015,07,20,21,31,18.80
2015,07,20,21,32,18.80
2015,07,20,21,33,18.80